SL-16 DEB, 22437

Orbit data source: Space-Track

SL-16 DEB, 22437 is space debris in LEO originally from a launch on Fri, 25 Dec 1992 UTC launched from the Tyuratam Missile And Space Complex (TTMTR). Debris objects in space refer to the collection of defunct objects orbiting the Earth. Examples of debris include non-operational satellites, rocket bodies, and fragments generated from explosions, collisions, or faulty payload assembly.

Loading next visibility...
Identifier
22437, 1992-093EE
Orbit
LEO
Country
Flag of CISCIS
Related business
Manufacturer
Unknown
Mission
Spacecraft
Bus & Motor
Unknown
Mass
Unknown
Launch date (UTC)
1992-12-25 (33 years ago)
Launch vehicle
Unknown
Launch site
Tyuratam Missile And Space Complex (TTMTR)
Object type
Payload
Rocket body
Debris
Shape & HBR
Unknown shape, 0.1 m
Radar Cross Section
Small (<0.1 m²)

Expand to show TLE details & history
Last TLE update: 19 hours ago

TLE from 19 hours ago
0 SL-16 DEB
1 22437U 92093EE  25348.91336034  .00002644  00000-0  63305-3 0  9998
2 22437  71.3303 175.8600 0033872 143.8144 216.5303 14.54094854722119
Epoch: 2025-12-14T21:55Z
TLE epoch observation values (Epoch: 2025-12-14T21:55:14.333Z)
Latitude
-0°
Longitude
123.23082°
Altitude
734.102 km
Speed
7.478 km/s
True Right ascension
11h 43m 26s
True Declination
0° 00' 00"
Sunlit
Object was in daylight at epoch
Visualization orbit readout
Latitude
Unknown
Longitude
Unknown
Altitude
Unknown
Speed
Unknown
Apparent Right ascension
Unknown
Apparent Declination
Unknown
Sunlit
N/A
Visualization observer readout
Local Sidereal Time
15:11:34
Azimuth
Unknown
Elevation
Unknown
Doppler factor
Unknown
Orbital elements
Apogee altitude
734.169 km
Perigee altitude
686.15 km
Semi-major axis
7,088.297 km
Eccentricity
0.00339
Inclination
71.3303°
RAAN
175.86°
Arg. of periapsis
143.8144°
True anomaly
216.30004°
Mean anomaly
216.5303°
Eccentric anomaly
216.41509°
Mean motion
3.63689 °/min
Orbital period
98.99 mins
BSTAR
0.00063305
Loading maneuver chart data...
Computing Atmospheric mass density...
Loading historical data...
Loading historical data...
Loading historical data...
Loading historical data...
Loading historical data...
Loading historical data...
Loading historical data...

Documentation

Showing up to 5 results
|